Regional Weather Roundup
Issued by NWS Charleston, SC

Current Version | Previous Version | Text Only | Print | Product List | Glossary Off
Versions: 1 2 3 4 5 6 7 8 9 10 11 12 13 14 15 16 17 18 19 20 21 22 23 24 25 26 27 28 29 30 31 32 33 34 35 36 37 38 39 40 41 42 43 44 45 46 47 48 49 50

000
ASUS42 KCHS 172310
RWRCHS
REGIONAL WEATHER ROUNDUP
NATIONAL WEATHER SERVICE CHARLESTON SC
700 PM EDT THU APR 17 2014

NOTE: "FAIR" INDICATES FEW OR NO CLOUDS BELOW 12,000 FEET WITH NO
SIGNIFICANT WEATHER AND/OR OBSTRUCTIONS TO VISIBILITY.

NOT ALL STATIONS ARE QUALITY CONTROLLED BY THE NATIONAL
WEATHER SERVICE. USE DATA WITH CAUTION...ESPECIALLY
DEWPOINT OBSERVATIONS.

SCZ027-030-031-034>040-042>050-180000-
...SOUTH CAROLINA...

CITY           SKY/WX    TMP DP  RH WIND       PRES   REMARKS
N CHARLESTON   PTCLDY    65  47  52 E13       30.35R
WATERFRONT PRK   N/A     63 N/A N/A NE31        N/A
FORT JOHNSON   NOT AVBL
MOUNT PLEASANT FAIR     N/A N/A N/A E7        30.35R
JOHNS ISLAND   CLEAR     63  52  67 E14G21    30.36S
PINOPOLIS        N/A     70  52  52 E7        30.27R
MONCKS CORNER  FAIR      70  52  52 NE6       30.35R
SUMMERVILLE    FAIR      68  50  52 NE5       30.34S
BEAUFORT MCAS  SUNNY     64  51  62 SE10G21   30.34R
BEAUFORT ARPT  FAIR      63  52  67 E16G22    30.34S
HILTON HEAD IS SUNNY     63  52  67 NE12G17   30.36R
GEORGETOWN     NOT AVBL
WALTERBORO     CLEAR     66  48  52 NE5       30.34S
ORANGEBURG     SUNNY     65  40  39 NE8       30.36S
BARNWELL       FAIR      66  45  45 E9        30.35F
AIKEN          FAIR      64  41  42 NE8       30.38F
MANNING        FAIR      68  45  42 NE5       30.36S
KINGSTREE      NOT AVBL
COLUMBIA       MOSUNNY   67  34  29 E9        30.35F
SUMTER         SUNNY     65  41  41 NE8       30.36R
FLORENCE       CLEAR     66  43  43 NE6       30.38R
MYRTLE BEACH   CLEAR     63  52  67 E12       30.37S
N MYRTLE BEACH CLEAR     62  52  69 E7        30.35F

$$

GAZ063-065-086>088-099>101-113>116-118-119-134-136>141-150-180000-
...GEORGIA...

CITY           SKY/WX    TMP DP  RH WIND       PRES   REMARKS
SAVANNAH ARPT  PTSUNNY   65  49  56 E12       30.34R
HUNTER AAF     MOSUNNY   63  50  63 E14       30.31F
FORT STEWART   PTSUNNY   64  52  64 E10       30.30F
STATESBORO     NOT AVBL
SYLVANIA       CLOUDY    68  46  45 NE6       30.33F
CLAXTON        MOCLDY    68  54  60 E9        30.31F
THOMSON        MOSUNNY   64  42  46 E6        30.38S
AUGUSTA-BUSH   MOSUNNY   66  39  37 E7        30.33F
AUGUSTA-DANIEL MOSUNNY   67  36  31 E9        30.34F
SWAINSBORO     CLOUDY    64  46  52 E5        30.32S
VIDALIA        PTSUNNY   66  50  55 NE7       30.30F
ALMA           PTSUNNY   64  49  57 E9        30.27F
WAYCROSS       NOT AVBL
JESUP          MOCLDY    61  50  67 E15       30.30F
BRUNSWICK      CLOUDY    61  55  82 NE13      30.32S
SAINT SIMONS   CLOUDY    62  56  80 NE16G25   30.30F

$$

SCZ027-028-034-036>038-045-046-048>050-GAZ119-141-180000-
...LAKE AND SUPPLEMENTAL COASTAL OBSERVATIONS...

STATION/POSITION TIME  TEMP    WIND        PRES    WAVE   SWELL
                       AIR SEA DIR/SP/G            HT/PER HT/PER/DIR
                 (UTC) (F)     (DEG/KT/KT) (MB)    (FT/S) (FT/S/D)
UPR LAKE MARION  NOT AVBL
WINYAH BAY       2200   62      80/ 12     1028.0S
LAKE MURRAY      2200   64      40/  4/  7 1027.8R
ACE BASIN NERRS  2200   67      90/  5     1027.0S
FORT PULASKI     2300   62 60   50/ 20/ 24 1027.5F
SAPELO ISLAND    NOT AVBL

$$

ANZ835-935-AMZ111-154-330-350-352-354-374-450-454-472-180000-
...C-MAN AND BUOY OBSERVATIONS...

STATION/POSITION TIME  TEMP    WIND        PRES    WAVE   SWELL
                       AIR SEA DIR/SP/G            HT/PER HT/PER/DIR
                 (UTC) (F)     (DEG/KT/KT) (MB)    (FT/S) (FT/S/D)
FOLLY BEACH CMAN 2200   61      60/ 20/ 23 1027.8F
BUOY 41004       NOT AVBL
BUOY 41008       2300   63 64   60/ 21/ 25 1025.9R   8/ 7
5E ST. MARYS GA  2300      64                N/A     8/ 6   2/ 70/12
FRYING PAN BUOY  2300   61 62   60/ 21/ 25 1027.0F   8/ 7
BUOY 41025       NOT AVBL
CAPE LOOKOUT NC  2200   56      30/ 21/ 23 1030.0F
BUOY 41002       NOT AVBL
BUOY 41010       2300   72 76   70/ 23/ 27 1021.1F   9/ 9   5/ 50/ 9
BUOY 41012       NOT AVBL
ST AUGUSTINE FL  2300   65      20/ 14/ 16 1023.9F
CAPERS NEARSHORE 2200           80/ 21/ 27   N/A
FRIPP NEARSHORE  2200   62      90/ 19/ 25   N/A


$$


USA.gov is the U.S. government's official web portal to all federal, state and local government web resources and services.